Theta_e
315 314 313 310 309 307 308 308 308 309 309 310 310 310 309 307 307 306 307 308 310 310 311 312 312 313 313 313 311 311 311 310 310 309 309 310 310 311 313 315 314 313 312 311 311 311 312 311 312 314 316 317 317 319 319 320 319 320 330 329 324 327 323 320 323 317 317 321 315 313 315 316 316 315 315 316 315 316 315 315 316 317 317 316 317 318 318 316
314 313 312 310 309 308 308 308 308 309 308 308 308 307 307 307 308 309 309 310 311 312 312 312 313 314 313 311 310 310 310 309 309 309 310 310 311 312 313 314 312 312 311 311 311 311 312 312 313 315 317 317 317 318 318 319 317 321 328 324 330 337 322 317 319 313 314 318 315 313 314 315 316 315 315 317 315 314 316 315 315 317 316 317 317 317 318 316
313 313 312 310 309 308 308 308 309 309 309 309 308 309 309 309 310 310 311 311 312 312 312 312 313 312 311 310 310 310 309 309 309 309 310 311 311 312 313 313 312 311 311 311 312 311 312 312 314 315 317 317 317 317 317 319 317 317 321 323 334 331 316 314 315 313 314 315 314 313 314 315 315 315 315 315 314 313 315 316 315 316 316 317 317 316 317 316
313 313 311 310 310 308 308 309 308 309 309 309 309 310 310 310 311 311 312 312 312 312 312 312 311 310 310 310 310 309 309 308 309 309 310 311 311 312 313 313 311 311 311 311 311 312 312 313 314 315 316 316 316 317 317 317 317 316 320 327 326 317 315 316 314 314 315 314 314 314 314 314 314 315 315 314 315 315 314 315 316 316 316 316 315 315 316 315
313 311 310 310 309 308 308 309 308 309 309 309 309 310 310 310 310 311 312 312 312 311 311 310 310 310 310 310 310 309 310 309 310 310 310 311 311 312 313 313 311 311 311 311 311 312 313 314 314 315 315 314 315 317 317 316 316 315 317 319 316 312 316 316 313 315 314 314 315 313 314 315 314 315 314 314 318 318 315 315 316 316 316 315 315 315 315 315
311 310 309 309 308 308 308 308 309 309 309 309 309 309 310 310 310 311 311 311 311 310 310 310 309 310 310 310 309 309 310 310 311 310 310 312 312 313 313 312 311 311 311 311 311 312 314 314 314 314 313 313 314 317 316 315 315 318 315 312 312 313 316 315 314 315 314 314 315 313 315 314 314 314 314 313 316 316 314 315 315 315 316 315 315 315 315 315
310 310 309 308 308 308 308 308 309 309 309 309 309 309 310 310 310 310 310 310 310 310 310 309 310 310 310 310 309 309 310 311 313 311 310 313 314 313 312 311 311 311 312 311 311 313 313 314 314 313 313 313 313 314 315 315 314 319 318 312 313 314 314 315 315 315 314 315 315 315 314 313 314 315 313 313 314 315 314 316 315 315 316 314 315 315 315 314
310 310 309 308 308 308 308 308 309 309 309 309 309 310 310 310 310 310 310 310 310 310 310 310 310 310 310 310 309 309 310 311 314 312 310 313 314 312 312 312 312 312 312 312 311 312 313 314 314 312 313 312 313 313 313 315 314 317 318 313 313 314 314 315 315 315 314 314 314 314 314 313 314 314 312 313 315 315 314 316 316 316 315 315 315 315 315 315
309 310 309 308 308 308 308 309 309 309 309 309 309 309 310 310 310 310 310 310 310 310 310 310 310 310 310 309 308 309 310 311 314 313 310 313 313 311 312 312 312 312 312 312 312 312 313 314 313 313 313 312 313 313 313 316 315 314 315 313 312 313 313 314 314 314 314 314 314 314 314 313 313 314 314 315 315 316 315 315 316 317 316 315 315 315 315 315
310 309 309 308 307 307 308 308 308 309 309 309 310 309 310 310 310 310 310 310 310 310 310 310 310 309 309 310 308 309 310 311 314 313 311 313 312 311 312 312 312 312 312 312 312 312 313 314 314 313 314 313 313 312 312 315 316 314 313 313 313 313 313 313 313 313 314 314 314 316 315 314 313 314 317 316 315 315 315 315 316 316 316 316 316 316 316 316
311 309 309 308 307 307 308 308 308 309 309 309 309 310 310 310 310 310 310 310 310 310 310 310 310 309 309 310 308 309 311 311 312 313 312 313 312 312 312 312 312 312 312 312 312 313 313 314 314 314 315 314 313 313 312 313 314 313 313 314 313 312 313 313 314 313 314 314 314 315 314 313 313 315 316 315 315 316 315 316 315 315 316 316 316 316 316 316
312 310 309 309 308 307 307 308 308 308 309 309 309 310 310 310 310 310 310 310 310 310 310 310 309 309 309 309 308 311 314 313 312 313 313 313 311 311 312 312 312 312 312 313 313 314 314 315 314 314 315 314 314 315 314 315 314 313 315 317 316 318 317 313 313 313 313 315 314 313 313 314 316 316 316 314 315 316 315 316 315 315 316 315 316 316 316 316
313 311 310 309 308 307 307 307 308 308 309 309 309 310 310 310 310 310 310 309 310 310 310 310 309 308 309 309 309 311 316 316 313 313 313 313 311 311 312 312 312 312 312 313 314 314 315 316 315 315 315 314 315 314 315 314 313 315 315 317 320 321 320 312 311 313 313 314 314 312 313 319 319 315 314 314 314 314 314 315 315 316 316 315 315 316 316 316
314 312 310 309 308 307 307 307 308 308 308 309 309 309 310 310 310 310 310 309 310 309 310 309 308 308 308 309 310 311 315 316 314 314 313 312 312 311 312 311 312 312 312 313 313 314 315 316 315 316 314 314 314 313 317 315 315 317 312 318 322 317 320 317 311 313 314 314 314 312 313 320 321 314 313 314 314 314 314 315 315 315 315 316 316 315 316 316
315 313 310 309 308 307 307 307 307 308 309 309 309 309 309 310 310 310 310 309 309 309 309 309 308 308 308 309 311 311 313 314 314 314 313 312 311 311 312 312 311 311 312 313 313 314 315 315 315 316 314 315 315 315 320 319 321 322 313 321 321 314 323 323 310 311 315 314 313 313 315 320 319 314 314 315 315 315 315 315 315 315 315 315 316 315 316 316
315 313 311 309 308 308 307 307 307 307 308 309 309 309 309 309 309 310 309 308 308 308 308 308 307 308 308 309 312 312 312 313 314 314 313 312 311 312 312 311 312 312 314 313 313 313 314 316 315 315 313 314 316 319 322 320 324 324 316 320 321 316 322 321 312 310 312 314 314 313 316 321 318 314 315 315 315 316 315 315 315 315 316 316 316 316 316 316
316 314 311 309 308 308 307 307 307 307 308 308 309 309 309 309 309 308 308 306 306 307 307 307 307 308 308 310 313 313 311 312 313 313 313 312 311 312 311 312 313 314 314 314 314 313 314 316 314 315 314 313 316 319 319 316 319 321 317 319 321 319 318 318 318 312 310 314 316 314 315 320 319 314 314 315 313 314 314 316 316 315 316 316 316 316 316 316
315 314 312 310 308 308 307 307 307 307 308 308 308 308 308 308 307 307 306 305 306 306 307 308 307 309 310 310 313 314 312 312 312 312 312 311 312 311 312 314 314 314 315 314 314 315 315 314 314 318 318 314 315 317 318 319 319 320 319 318 318 317 315 318 321 315 312 315 316 317 316 320 320 314 313 316 314 314 314 315 315 315 315 315 315 315 315 316
315 313 312 310 308 308 308 307 307 307 307 308 308 307 306 306 305 305 305 306 307 308 309 309 308 311 313 310 312 314 312 311 312 312 312 312 312 312 314 315 314 315 315 314 315 314 314 314 314 318 319 317 316 315 320 324 322 322 323 325 324 320 318 319 320 314 311 316 318 318 318 319 320 316 313 316 314 312 313 315 314 314 315 314 314 314 314 314
314 313 312 310 308 308 307 307 307 307 307 307 307 306 306 307 308 309 308 308 309 309 310 309 308 312 313 310 312 314 313 312 312 312 312 312 312 314 315 315 315 315 315 317 317 314 314 317 317 318 318 318 318 315 317 319 319 320 323 326 324 321 319 317 318 314 309 315 318 316 317 318 318 318 313 313 313 310 311 313 314 314 314 314 314 314 314 314
315 313 312 310 309 308 308 307 307 307 307 307 307 307 307 308 310 311 310 309 309 310 310 309 308 311 312 310 313 314 312 312 312 312 312 312 313 315 315 315 315 315 314 314 315 314 315 317 318 319 316 315 316 316 316 317 318 319 321 323 320 318 319 315 315 316 310 313 318 315 317 318 317 317 311 309 310 310 311 311 312 314 314 314 314 314 315 314
315 314 313 311 309 308 307 307 307 306 306 307 307 308 307 307 310 310 308 309 309 310 311 309 308 311 312 311 313 314 312 313 312 313 313 313 315 314 314 315 315 316 313 312 315 316 316 318 319 315 310 310 313 314 317 321 323 323 320 320 320 318 318 317 315 316 312 313 320 320 319 317 315 316 312 308 310 311 311 311 312 313 313 314 314 314 314 314
316 315 313 311 309 308 307 306 306 306 306 307 307 308 307 308 311 309 306 308 308 310 311 310 309 312 312 312 314 313 312 312 312 313 313 314 315 314 314 314 315 317 315 316 318 317 317 319 317 309 306 312 315 314 318 320 321 324 322 319 320 318 318 319 316 316 313 312 317 320 318 316 315 318 315 308 307 310 311 312 312 312 313 315 315 315 315 315
316 315 313 312 309 308 307 306 306 306 306 307 307 308 307 308 311 308 307 308 308 310 311 310 310 312 312 313 314 313 312 312 312 313 313 314 315 314 313 313 315 317 315 317 317 316 318 315 309 306 311 318 317 314 317 318 316 320 328 329 324 322 321 317 317 318 315 313 315 316 317 320 320 324 324 313 307 308 310 311 312 313 314 315 315 315 316 316
315 315 313 311 308 307 307 306 306 306 306 307 307 308 307 309 310 307 308 310 309 310 310 310 311 312 313 313 313 313 312 312 312 313 313 315 314 313 313 312 314 316 316 316 315 316 317 310 308 312 316 320 319 317 318 320 317 317 326 329 324 328 326 319 319 321 319 317 313 311 316 325 325 325 327 321 314 313 309 307 310 313 313 312 314 315 315 316
314 314 312 309 307 307 307 306 306 306 307 307 307 308 307 309 309 308 311 312 310 310 310 310 311 311 313 313 314 313 312 313 313 313 314 314 314 313 313 311 312 315 315 314 314 317 315 310 312 319 320 319 319 318 316 319 319 316 318 320 322 329 327 320 319 318 320 317 310 312 317 320 321 319 319 320 319 320 315 309 308 311 313 312 313 314 314 314
313 313 310 308 308 308 307 307 307 306 308 307 307 308 307 309 309 308 311 311 311 310 309 309 309 311 313 314 313 312 314 315 314 313 313 314 314 312 314 313 311 313 311 312 315 315 314 314 315 320 322 320 318 318 316 317 320 316 316 319 325 328 323 324 323 319 321 316 315 321 321 315 317 317 316 317 319 321 319 316 310 310 314 314 313 313 314 314
310 310 309 308 309 308 308 308 307 306 308 308 309 309 307 309 309 309 312 310 310 310 308 308 309 311 312 313 313 312 314 315 314 314 313 313 314 312 314 313 314 316 311 311 317 314 313 319 318 320 323 320 320 321 316 319 324 318 314 318 324 324 326 331 330 326 320 313 318 324 316 314 322 322 319 314 315 318 320 320 314 311 315 315 313 313 314 315
309 308 308 309 310 309 309 310 308 306 308 309 309 309 308 309 309 309 311 309 309 310 308 308 310 311 312 312 312 312 312 313 314 314 313 313 314 312 313 311 311 316 310 311 321 316 312 316 315 318 322 319 320 318 313 321 325 316 311 316 319 321 326 329 327 324 317 314 323 324 313 312 320 325 324 315 312 320 323 321 315 311 315 316 314 314 315 316
310 309 308 310 310 309 310 310 307 306 309 309 310 310 309 310 310 308 308 309 311 310 307 308 310 311 312 312 311 312 313 313 313 314 312 313 314 311 312 311 310 316 317 318 323 318 311 311 311 314 316 315 315 313 311 315 315 311 315 320 320 323 325 327 328 320 313 318 326 321 314 312 314 323 328 316 311 316 319 320 317 313 315 316 316 316 315 316
312 311 310 310 310 309 310 310 307 307 308 309 310 310 309 311 312 309 307 311 315 311 307 308 310 311 312 312 312 313 314 314 312 313 314 313 313 312 312 312 312 317 320 321 321 317 313 313 313 312 311 311 315 316 312 310 309 312 324 324 319 323 322 324 328 319 313 323 323 317 314 312 312 321 323 317 317 316 314 317 318 314 315 316 316 316 316 316
315 314 311 310 310 310 311 310 308 307 308 309 309 308 309 311 310 310 309 310 313 312 310 310 310 312 313 312 314 315 316 315 311 312 315 315 315 313 313 315 317 316 316 318 319 317 317 317 313 312 311 312 319 322 316 315 316 318 323 322 318 320 318 319 325 319 317 321 315 314 315 311 314 318 316 317 319 315 311 312 315 313 314 317 317 316 316 316
316 316 313 312 313 312 312 311 309 307 308 308 308 309 313 312 309 310 311 311 311 311 312 312 311 312 312 312 314 315 315 316 313 312 314 315 315 314 315 317 318 319 318 319 320 317 319 320 315 314 314 312 316 320 318 319 320 317 319 321 319 318 315 318 321 315 316 318 312 312 314 314 317 315 314 316 312 310 309 309 312 312 313 316 316 317 317 316
316 317 316 315 316 315 314 313 310 308 309 308 307 310 314 312 310 311 312 311 312 312 312 314 312 311 312 313 314 314 315 314 313 313 314 315 315 314 315 314 315 321 323 319 319 318 319 321 319 318 316 314 315 317 321 322 318 316 317 316 317 322 322 320 321 318 318 320 315 310 314 322 321 312 313 313 308 308 311 311 313 312 312 314 313 315 316 315
316 317 318 317 318 316 315 315 313 311 310 308 307 310 310 309 312 312 310 312 316 315 312 312 311 311 312 312 312 312 314 314 313 314 315 315 315 314 314 312 313 321 322 316 316 317 316 317 318 315 312 314 316 313 316 320 318 316 313 312 314 321 324 317 314 317 317 317 316 313 317 325 319 312 312 308 306 308 309 311 314 312 311 311 311 313 313 314
316 317 317 317 318 317 316 317 315 311 309 307 308 310 309 310 314 314 311 313 316 313 311 311 312 313 311 311 313 312 312 316 315 314 314 314 315 314 313 313 313 315 316 316 317 316 315 315 316 314 311 312 313 311 311 314 317 315 313 316 317 315 322 319 310 310 311 312 316 315 317 322 316 314 317 312 311 312 309 310 312 311 310 310 311 313 312 314
314 316 316 316 318 318 317 318 315 310 308 308 307 309 309 310 314 316 314 313 313 311 311 312 312 313 312 311 314 313 312 316 315 314 315 314 315 314 314 313 312 311 312 315 317 317 318 318 314 314 315 311 309 310 309 308 313 318 318 318 314 309 317 320 313 316 316 314 318 315 315 319 316 317 322 315 312 315 315 312 310 310 311 311 314 314 314 316
310 312 314 316 317 317 317 318 315 309 309 309 307 310 314 311 310 314 314 310 310 312 313 314 312 312 312 311 313 312 313 316 314 314 315 313 314 315 314 313 311 310 310 310 312 315 319 318 314 313 316 313 311 313 314 310 310 316 318 314 314 316 319 316 313 318 317 314 320 319 313 313 313 317 321 315 313 319 318 315 312 310 310 312 316 316 316 317
308 308 310 313 315 317 317 318 315 311 310 310 307 309 315 315 310 311 312 309 312 314 313 316 315 311 311 311 312 312 312 314 314 314 314 313 314 313 312 313 313 310 308 308 312 313 315 316 315 312 312 314 314 315 317 317 311 311 311 309 315 322 321 317 314 316 316 314 317 320 317 316 316 317 318 313 317 322 318 317 315 309 309 314 315 315 316 316
308 307 307 309 312 315 316 316 315 313 311 310 309 308 312 315 311 310 311 311 314 314 314 318 316 312 313 312 312 312 312 314 313 313 314 312 313 312 310 311 313 311 308 308 312 314 313 312 313 313 311 313 317 316 316 317 314 313 314 313 315 317 315 317 315 314 318 319 319 318 316 318 320 317 316 314 317 319 316 316 315 309 311 315 314 314 316 315
307 306 307 308 309 313 315 314 313 312 312 311 312 313 313 313 311 311 311 311 313 313 314 319 317 314 315 313 312 312 313 314 313 313 314 312 311 313 311 310 312 311 310 309 311 315 313 312 316 317 314 314 318 316 313 315 316 314 314 315 315 315 315 316 315 312 314 315 319 318 312 317 322 317 314 315 313 311 309 310 312 312 313 315 314 315 315 315
307 306 307 308 308 310 311 311 309 309 311 312 311 313 313 312 312 312 311 311 313 313 313 318 321 320 317 313 313 314 313 314 313 314 315 313 312 314 311 309 310 310 311 312 312 312 312 316 321 320 317 317 316 311 307 311 315 314 314 315 315 314 315 316 316 316 314 312 315 315 313 318 320 312 310 310 306 306 309 310 311 312 313 314 314 315 314 315
306 306 307 308 308 308 307 308 308 307 308 310 310 310 311 312 312 313 312 312 314 314 314 317 319 318 317 315 315 314 313 313 313 313 315 313 312 312 310 309 310 310 311 313 312 310 311 316 318 317 318 320 319 314 308 309 313 314 316 317 315 315 317 319 319 318 317 316 315 314 314 317 317 309 304 304 304 306 311 312 311 312 313 314 314 314 314 314
305 306 308 309 308 307 307 308 309 307 307 308 310 311 311 311 312 313 315 314 314 315 317 318 315 313 316 317 316 315 313 313 313 313 315 314 311 310 310 310 310 311 310 312 313 311 312 316 316 315 318 319 319 319 316 313 314 316 318 317 315 317 318 317 316 314 315 319 318 316 315 315 319 314 307 307 310 309 309 311 312 312 314 314 314 314 314 314
304 305 306 309 309 307 306 307 307 308 307 307 310 311 311 311 311 312 315 314 313 314 316 316 313 314 317 317 317 317 314 314 315 314 314 315 311 310 311 310 310 310 310 311 311 310 314 317 316 314 314 314 315 317 317 316 315 316 320 318 315 316 316 314 315 314 315 318 317 316 314 313 317 318 312 313 317 314 310 310 310 311 313 314 314 314 314 314
303 304 305 307 308 307 306 306 306 307 307 308 309 310 311 312 311 311 313 313 312 313 313 313 313 314 317 317 318 318 314 314 317 315 315 316 314 312 310 310 310 309 310 311 309 312 319 318 314 313 313 313 312 314 318 320 317 316 318 318 315 315 314 315 317 316 315 317 316 314 313 313 316 317 315 316 319 317 312 309 310 311 312 313 313 313 314 314
303 304 304 306 308 308 307 307 306 306 307 308 310 310 310 312 312 312 312 312 313 313 313 314 314 316 317 317 319 319 316 316 316 315 316 317 315 313 310 310 310 309 311 311 308 314 321 317 313 314 313 312 313 316 319 319 318 317 316 316 315 315 314 315 316 315 315 316 316 314 313 313 314 316 318 319 318 318 313 308 310 312 312 313 313 313 313 313
302 303 302 304 307 307 308 308 306 306 307 308 309 309 309 310 312 313 312 312 313 314 315 315 316 316 317 317 319 318 317 316 316 315 317 317 316 315 313 311 311 310 311 311 309 313 319 316 314 314 313 312 314 318 319 317 317 317 316 316 315 314 314 314 314 314 315 315 314 314 316 315 313 314 318 317 314 314 312 309 310 312 312 313 313 313 314 313
301 301 300 302 303 304 305 308 307 306 307 308 308 309 309 310 311 312 312 312 313 313 314 316 316 316 317 317 318 319 317 317 317 316 316 317 316 316 317 316 312 309 311 313 311 311 316 319 319 315 312 313 315 317 318 316 316 316 315 315 314 313 313 314 314 314 314 314 315 315 316 316 313 314 316 312 310 310 310 310 311 312 312 314 313 313 314 313
300 300 301 301 301 301 303 307 308 307 307 308 309 308 308 309 310 311 311 312 313 313 313 314 314 315 316 316 317 318 316 316 319 318 316 317 317 316 318 318 314 311 313 316 314 311 312 318 320 315 313 315 316 316 315 314 315 316 315 315 314 313 313 313 313 314 313 314 314 314 315 314 312 311 311 311 310 310 310 310 312 313 313 313 313 313 313 313
299 300 300 301 301 301 303 305 307 308 308 308 308 308 308 309 309 310 311 311 312 312 313 313 313 314 314 314 315 316 314 314 316 315 314 315 317 316 315 314 314 315 316 316 316 315 313 315 318 316 316 317 316 315 315 313 313 315 316 316 314 313 313 312 312 313 313 314 314 314 314 314 312 309 309 309 310 309 311 312 312 313 313 312 312 312 312 311
299 300 300 300 302 303 302 303 306 308 308 307 307 307 307 308 309 309 311 311 310 311 312 312 312 313 313 313 314 314 313 312 312 311 311 312 312 312 311 311 311 315 317 316 316 316 315 317 320 318 317 318 315 314 315 315 315 315 315 315 313 312 312 312 312 313 313 313 314 314 313 313 314 313 313 313 311 310 310 312 312 312 312 312 312 311 310 310
Wind_Speed
22 22 22 21 21 23 23 23 24 24 24 24 25 25 26 26 25 23 22 21 21 21 20 18 18 18 19 18 18 17 16 15 14 14 14 14 13 13 15 13 11 12 12 11 11 11 10 9 10 11 11 9 7 10 10 7 9 6 3 3 1 3 3 5 7 7 4 3 6 11 16 10 6 9 10 7 6 9 12 10 10 13 13 8 6 6 11 19
24 22 21 21 21 23 23 23 23 23 23 23 24 26 26 25 24 23 21 21 20 20 18 17 18 18 18 18 17 16 14 14 13 14 14 13 14 14 15 14 10 12 12 12 11 10 11 10 11 12 11 9 6 9 9 7 8 4 3 3 3 5 4 5 6 7 4 2 6 11 13 11 9 12 12 6 4 8 9 7 9 11 12 10 8 8 13 18
23 21 20 21 21 23 24 23 23 23 24 24 25 26 26 24 23 22 21 20 20 19 17 17 17 18 18 17 16 14 12 11 11 14 14 13 15 15 16 14 11 12 12 11 11 10 11 11 11 13 12 8 6 8 8 7 6 2 4 3 5 7 4 4 5 5 6 5 7 10 9 9 9 13 12 7 5 5 8 10 10 12 14 13 10 11 15 18
23 23 21 21 22 23 24 24 23 24 25 25 25 25 24 23 22 21 21 19 19 19 17 17 17 17 18 17 15 13 10 6 9 14 14 14 15 15 16 14 12 12 13 12 12 11 12 11 11 13 11 5 4 6 6 6 6 3 5 4 5 6 2 4 4 3 6 8 9 10 7 6 8 12 11 9 6 3 11 18 17 16 16 15 14 13 15 18
22 23 23 23 23 24 24 24 25 25 25 25 24 24 23 23 22 21 20 20 19 18 17 17 17 17 17 17 15 12 9 2 7 14 14 15 16 15 16 14 13 13 13 13 13 13 13 11 10 12 9 3 3 4 4 6 7 4 2 2 5 7 2 2 2 2 3 7 10 9 7 6 8 10 12 12 8 7 13 17 18 17 15 15 15 15 16 18
20 21 23 23 23 24 24 24 25 25 25 25 24 24 23 22 22 21 21 20 19 18 17 17 17 18 17 17 14 13 11 2 5 15 15 16 16 15 16 15 14 13 13 13 14 14 13 11 10 11 7 2 4 4 3 7 7 3 2 1 5 6 2 2 1 0 4 9 11 10 7 8 8 6 11 16 14 11 8 9 13 16 15 14 15 17 17 18
18 19 20 21 23 25 26 25 25 25 25 25 25 24 23 22 22 21 21 20 19 17 17 17 18 18 17 17 14 14 14 4 4 16 18 17 16 15 16 14 14 13 13 14 15 16 14 12 10 10 6 3 4 4 3 7 6 3 2 2 5 4 3 4 2 2 5 9 10 9 7 7 9 5 6 15 21 16 8 5 8 14 17 16 16 18 18 18
19 19 20 21 22 24 26 26 26 26 26 26 25 24 23 22 22 21 21 20 19 17 17 18 18 18 17 16 14 12 15 7 4 16 19 18 16 15 15 13 13 13 14 14 14 17 15 12 11 11 6 1 5 5 5 6 2 2 3 4 5 4 4 4 3 4 4 7 8 7 6 4 7 5 4 14 20 16 13 9 7 10 16 18 17 18 18 19
19 20 20 21 22 23 25 27 27 27 27 27 26 25 23 23 22 21 21 19 18 18 17 18 17 18 16 16 14 8 12 9 5 14 19 18 16 15 15 13 12 12 13 13 14 16 15 12 13 11 5 4 5 5 8 6 1 4 6 6 6 4 4 5 5 5 5 6 6 5 2 2 3 4 7 14 16 15 15 13 10 9 12 16 17 17 18 20
19 20 21 21 22 22 23 24 26 26 27 27 26 25 24 23 22 21 20 19 18 18 17 18 17 18 17 17 13 6 11 12 6 13 19 18 17 15 14 13 11 11 11 13 14 14 15 13 13 11 4 5 6 4 7 5 3 8 9 7 6 4 3 4 4 5 5 5 4 5 3 3 2 1 6 7 6 11 16 16 14 12 11 13 14 15 17 19
18 20 21 22 23 22 22 23 24 25 26 26 25 25 24 22 21 20 19 18 18 18 18 18 17 17 17 17 14 7 11 14 7 12 19 17 17 16 15 13 11 10 11 13 14 13 13 12 13 11 3 4 7 4 4 4 4 12 13 7 5 4 2 1 3 5 4 3 3 4 2 3 1 1 9 7 2 4 11 16 17 16 16 15 15 15 17 18
17 20 21 22 23 23 23 24 25 25 25 25 24 24 24 22 21 19 18 18 18 18 18 18 17 16 16 16 16 11 10 12 10 11 17 17 17 16 16 14 11 9 9 11 13 12 12 11 12 10 4 7 7 3 4 5 8 11 10 4 5 7 2 2 1 4 3 3 3 4 1 5 3 8 12 7 5 3 4 12 17 18 19 18 18 18 18 19
15 18 20 22 24 24 24 24 25 25 25 25 24 24 23 22 20 18 18 17 18 18 18 17 16 16 15 13 15 14 9 10 12 12 16 18 17 17 16 14 12 10 9 10 11 13 12 9 9 8 8 9 5 4 7 7 9 7 4 4 2 7 4 3 1 3 3 3 3 4 1 6 7 15 15 7 8 8 7 10 14 18 20 20 21 20 21 20
14 17 19 22 24 25 24 24 25 26 25 24 24 24 23 22 20 18 17 16 17 17 17 17 16 16 15 11 11 15 11 8 12 15 16 19 18 18 16 14 12 10 10 9 10 12 11 8 8 8 8 8 8 10 7 5 5 3 2 2 2 1 4 5 1 4 5 2 3 5 2 6 8 11 9 8 12 13 14 14 14 17 19 21 22 22 23 22
14 16 19 22 24 25 24 24 25 25 25 25 24 23 23 22 20 18 17 16 16 17 16 16 16 15 12 9 9 14 15 10 11 16 17 19 19 17 15 14 12 11 10 10 10 12 11 8 8 7 8 9 12 10 4 4 3 3 2 1 3 3 5 7 1 5 5 2 2 5 2 6 9 8 2 1 5 8 13 13 12 15 17 19 21 22 23 23
15 16 19 22 24 25 25 25 24 25 25 24 24 23 22 21 19 18 17 16 16 16 16 15 16 14 7 6 8 12 17 14 11 16 18 18 18 16 14 13 12 12 11 10 11 13 12 9 8 8 8 9 9 6 4 3 3 4 3 3 1 2 3 5 1 1 1 2 0 2 3 3 5 5 1 4 3 1 5 7 8 11 13 15 18 20 22 23
16 16 18 21 24 26 26 25 25 25 25 24 23 22 21 20 18 18 17 16 15 15 16 14 16 13 5 7 9 11 18 17 12 15 18 18 18 15 13 13 12 12 11 11 12 13 12 9 8 6 5 4 3 5 5 0 3 2 2 2 3 3 2 2 2 2 2 2 1 2 2 6 7 7 6 4 4 5 8 10 10 11 13 15 17 20 22 24
17 17 19 22 25 26 26 25 25 25 24 24 22 20 20 18 17 17 17 17 17 15 13 13 15 8 6 11 11 11 18 18 14 15 18 19 17 14 14 13 12 13 13 12 10 11 9 6 6 3 3 3 2 5 5 5 5 5 3 3 3 2 3 3 3 2 2 2 2 0 2 9 11 12 17 18 14 15 17 18 19 19 20 21 23 25 26 27
17 18 19 22 25 26 26 25 26 25 24 23 22 21 20 18 17 17 19 20 18 11 6 15 20 6 3 13 15 13 18 19 16 17 18 19 17 16 14 12 14 16 14 9 5 7 7 4 5 3 2 3 5 6 6 8 8 9 6 5 5 3 4 5 4 4 1 2 3 4 5 8 10 10 16 23 19 15 18 20 22 23 24 25 26 27 28 30
17 18 19 21 24 27 26 26 25 24 25 24 25 24 20 18 12 9 18 22 17 7 2 17 27 7 3 13 20 16 17 18 18 19 19 19 18 17 14 13 14 12 8 5 4 4 5 4 3 5 7 8 8 7 6 5 6 7 6 5 4 4 3 3 3 5 1 3 4 4 4 8 11 10 15 24 19 13 18 21 24 27 27 28 28 28 30 31
17 17 18 20 24 26 25 26 25 26 27 25 29 25 18 20 11 7 18 16 13 8 1 17 29 11 1 13 22 18 17 16 17 21 20 20 20 16 13 12 9 5 2 3 5 3 4 5 7 8 8 7 6 7 7 6 6 5 6 5 2 2 2 2 2 4 3 1 3 2 3 9 11 11 15 20 14 13 21 22 25 29 28 30 30 30 31 31
19 18 18 19 23 25 25 27 27 29 29 28 33 25 19 24 14 14 21 9 10 9 2 18 27 12 4 13 20 18 16 11 12 20 20 21 21 13 10 8 6 4 1 3 6 3 3 4 9 8 6 7 6 5 7 7 6 5 4 5 2 2 2 3 3 4 4 0 3 5 6 9 11 10 15 18 15 18 23 23 24 27 28 31 32 33 33 33
22 20 18 19 22 25 26 29 29 31 32 32 34 24 21 23 12 17 21 6 8 9 5 18 23 13 9 14 18 17 13 9 10 19 21 21 20 13 11 8 5 5 3 4 6 5 3 6 7 8 9 9 6 3 7 7 4 4 4 5 2 2 1 1 2 4 4 2 2 4 5 9 8 6 11 15 15 18 20 20 21 23 25 27 27 28 30 31
23 22 20 19 22 26 28 30 30 32 33 33 33 24 22 22 14 19 16 3 4 7 7 16 18 15 13 14 18 16 12 9 10 20 23 22 20 13 10 8 6 5 4 6 8 8 5 5 5 11 7 7 7 3 6 6 2 1 3 6 3 3 4 2 2 2 3 4 3 3 5 7 5 5 7 7 6 10 13 13 17 19 20 21 21 22 22 24
24 23 20 20 24 27 29 30 31 33 33 33 32 24 21 20 17 19 11 4 2 4 5 13 12 14 14 13 17 15 10 8 10 19 24 22 20 12 7 7 6 4 4 5 8 6 5 3 8 10 4 6 8 4 5 7 3 2 3 6 6 7 6 2 2 4 4 4 4 5 4 6 6 5 7 5 5 9 10 9 16 21 19 21 23 23 22 21
26 24 21 23 27 29 28 26 30 34 33 33 30 23 20 20 20 18 7 5 1 2 5 10 9 12 15 12 16 15 6 5 9 19 23 21 18 12 7 5 3 3 5 5 4 3 2 1 5 8 6 6 7 3 5 6 6 2 4 5 6 7 8 5 3 3 1 2 3 4 3 5 7 5 8 6 7 10 11 10 17 22 20 20 23 24 22 21
27 26 24 27 30 31 27 23 30 33 30 30 28 22 20 21 20 15 5 5 3 4 7 8 7 13 15 13 19 14 3 6 9 15 22 20 16 11 7 4 2 2 5 4 2 2 2 3 4 6 7 6 5 3 5 7 8 3 3 6 8 7 8 6 6 4 2 2 4 4 4 2 6 6 6 5 6 10 11 11 14 18 17 14 15 16 13 10
25 26 28 31 30 31 27 23 29 33 28 26 25 21 20 22 20 12 5 2 3 5 7 6 7 12 14 17 21 11 5 12 9 10 20 20 14 8 4 5 5 5 3 5 4 3 2 4 4 6 6 4 5 4 6 9 6 4 4 7 6 6 7 5 6 4 1 2 4 5 2 2 6 7 5 4 4 8 9 9 11 15 14 8 3 3 3 5
22 26 30 31 29 28 25 23 28 31 26 24 22 20 20 22 17 7 3 2 3 4 4 8 10 11 13 16 15 7 8 9 4 9 19 16 12 6 2 6 8 7 3 4 5 3 1 2 5 6 6 5 4 2 4 5 3 5 7 7 6 6 6 5 5 4 3 2 4 6 2 2 5 7 5 2 1 5 7 7 8 12 12 7 7 10 12 12
20 25 29 28 27 27 22 22 28 29 25 23 21 21 22 20 11 4 3 4 3 3 3 9 9 9 13 11 4 2 5 2 4 13 14 10 10 6 6 7 7 8 4 6 4 2 2 1 0 3 3 5 5 3 2 2 6 11 8 7 7 6 5 4 3 4 3 3 6 6 3 1 3 6 4 2 2 4 3 5 7 11 13 12 14 16 16 14
18 22 26 26 26 26 22 22 27 28 26 23 21 22 21 11 4 4 6 3 3 2 2 4 4 7 14 11 4 3 3 2 5 13 8 4 6 5 7 6 4 5 3 4 2 4 4 3 1 1 2 6 8 6 5 5 7 9 5 5 4 4 4 4 4 4 1 5 6 5 2 2 4 5 4 4 5 5 4 3 7 9 10 11 14 15 13 12
20 19 21 24 25 23 21 22 26 28 28 24 22 21 14 5 2 5 4 1 3 3 4 4 3 6 11 8 5 4 3 2 4 7 5 4 5 4 5 5 4 4 1 3 2 3 2 0 2 2 1 5 6 5 5 5 5 5 5 6 4 2 3 2 3 1 3 6 4 3 1 3 6 7 8 9 8 6 8 8 6 9 8 6 8 7 7 8
23 20 18 19 19 19 19 21 25 28 27 26 22 14 7 3 7 7 2 2 2 2 4 5 2 6 10 7 4 4 3 2 4 3 2 4 5 5 3 3 6 5 3 5 4 2 1 4 3 2 2 5 5 6 4 1 0 4 5 5 4 3 2 2 3 2 4 4 3 3 2 3 4 5 9 12 7 4 7 9 9 9 7 4 3 3 2 4
25 22 19 17 15 17 19 20 24 26 26 27 20 8 5 6 7 4 4 4 1 2 2 4 6 8 8 5 5 5 3 1 4 4 3 4 5 6 5 5 4 5 4 4 3 5 4 4 4 4 2 5 5 4 7 6 3 3 3 6 5 5 5 4 4 3 4 3 3 4 2 3 2 2 7 10 9 10 11 11 11 11 8 7 8 8 7 2
26 24 21 19 17 18 18 21 24 24 27 27 14 4 8 9 4 4 6 5 1 2 3 4 8 9 4 1 1 5 2 2 4 5 4 5 5 7 7 6 5 4 6 5 2 3 4 4 4 2 1 7 5 2 5 7 2 2 2 5 3 5 5 3 3 5 3 1 3 2 3 4 3 5 9 8 9 10 9 9 9 8 6 6 4 4 4 3
24 26 23 21 21 20 19 21 21 24 30 23 8 5 9 6 3 4 5 5 4 5 6 4 4 6 5 2 2 5 1 2 5 4 4 4 3 6 7 5 7 6 6 7 3 2 3 3 4 4 2 3 2 1 3 4 3 2 2 3 5 4 7 5 2 1 4 1 3 2 4 5 3 6 9 6 7 8 5 6 9 8 5 8 6 5 5 6
18 23 24 24 23 20 21 21 19 26 29 17 6 8 4 1 4 4 3 5 8 9 9 5 2 4 6 4 5 7 3 2 4 3 4 3 2 6 6 4 6 10 7 5 2 3 5 1 4 2 2 2 3 4 5 4 4 5 3 6 4 2 4 4 2 3 4 2 5 1 4 5 1 4 7 6 4 8 7 7 10 8 5 12 13 11 10 10
11 13 16 24 25 22 23 20 19 26 22 9 8 9 2 1 3 2 2 5 8 8 6 5 3 3 6 6 6 8 6 4 5 4 4 4 4 7 9 5 6 12 11 5 1 3 5 2 4 2 2 3 4 4 3 5 4 4 5 4 4 3 1 2 2 2 1 2 5 4 4 4 4 5 5 2 4 7 9 7 8 6 4 14 17 16 12 12
8 6 5 14 22 25 26 22 20 22 13 6 10 9 1 2 2 1 4 4 6 6 5 5 3 2 5 7 6 7 7 6 8 6 4 4 5 5 10 7 4 11 15 8 3 3 4 3 2 2 1 2 3 2 4 1 3 4 4 3 3 3 4 3 3 4 3 2 3 4 5 3 6 6 6 7 8 8 7 5 6 3 8 14 15 16 14 13
10 5 3 9 13 19 27 25 19 16 8 4 7 4 0 1 1 2 4 3 3 3 3 5 3 3 4 3 3 5 5 5 8 6 4 5 5 4 8 9 4 8 12 7 3 3 3 3 4 2 2 1 2 3 7 7 4 3 4 3 2 1 2 2 1 3 4 3 2 3 5 5 5 4 8 10 9 8 6 4 2 5 14 15 13 15 15 13
11 3 4 11 10 12 22 20 11 7 4 2 2 2 1 1 2 2 2 2 2 2 2 4 4 5 5 4 3 5 4 4 6 5 3 6 6 4 7 11 8 8 7 4 2 4 3 3 4 2 1 4 4 3 3 7 7 6 6 7 7 5 4 3 3 1 2 3 4 3 5 7 5 4 7 7 6 4 6 9 9 12 15 12 12 15 15 13
12 3 2 11 12 10 13 10 2 2 2 2 2 2 2 2 2 2 2 2 2 2 2 3 3 3 4 4 3 5 6 4 5 6 4 6 7 4 6 11 15 16 11 5 4 4 3 4 4 2 4 6 5 4 1 2 2 3 3 5 6 5 5 6 5 4 1 1 3 3 3 7 5 3 4 3 3 4 12 17 15 13 13 12 13 13 11 10
11 4 4 11 15 13 6 3 1 2 1 1 2 2 2 2 2 2 2 1 1 2 2 1 2 2 3 3 4 6 7 5 5 7 4 4 5 4 5 11 16 16 10 5 3 3 3 4 4 1 3 4 5 4 3 2 3 1 2 2 5 4 4 5 5 4 4 4 3 3 3 7 6 3 2 3 2 8 13 15 12 10 12 12 10 8 6 6
11 6 5 10 15 15 7 1 2 3 1 1 1 1 1 1 2 3 2 2 1 2 2 1 1 1 2 3 4 6 7 5 5 6 3 2 4 4 6 12 15 11 7 6 7 8 5 2 4 3 2 3 4 4 3 2 2 4 3 3 5 5 6 4 2 3 2 6 7 5 5 7 5 4 4 2 3 8 11 12 8 7 9 8 4 4 6 12
9 5 5 8 14 16 9 3 2 3 3 4 2 2 2 0 2 3 3 2 2 3 3 2 2 3 3 3 4 3 5 3 3 5 3 2 2 1 3 9 14 11 6 5 10 13 8 3 5 6 5 7 6 5 5 4 2 2 2 4 6 7 9 5 2 3 5 6 7 7 8 5 4 5 3 3 4 6 9 11 6 4 6 3 2 6 11 18
5 3 3 4 11 15 9 6 6 3 3 5 2 2 4 2 1 3 4 2 1 2 3 1 2 4 2 3 4 3 4 1 2 3 4 4 3 1 1 4 10 10 5 5 13 13 4 1 6 8 10 12 10 6 5 8 7 6 8 9 8 8 11 8 4 5 8 3 4 10 10 5 5 4 2 1 5 5 7 11 7 3 2 2 6 11 16 19
3 1 3 3 5 9 7 8 10 4 4 6 3 3 7 4 1 2 4 3 4 5 2 2 2 3 3 5 5 3 4 2 3 3 3 3 2 1 2 3 4 6 5 7 13 10 4 3 8 9 11 12 7 6 7 10 11 14 13 12 11 10 11 10 9 12 7 4 6 11 7 7 11 6 5 7 6 4 8 12 7 3 3 6 11 17 19 19
2 0 4 5 3 4 5 8 11 6 5 7 3 3 7 7 4 3 4 2 3 5 3 1 3 5 5 7 5 3 4 3 1 3 2 2 2 1 2 3 3 3 4 5 8 6 4 5 7 7 11 12 5 5 8 10 10 12 13 15 15 13 13 14 17 17 10 7 14 12 10 11 15 8 8 11 9 9 12 10 7 8 10 14 18 21 22 22
3 0 2 4 2 1 2 8 13 9 6 8 5 4 7 8 8 5 2 3 2 4 5 3 5 6 5 5 5 5 6 5 3 4 3 3 3 2 2 1 0 1 4 4 4 3 3 4 4 7 10 11 5 4 7 10 9 8 11 13 14 16 18 19 20 20 15 12 15 11 8 13 12 7 10 15 15 16 15 9 8 11 15 19 22 22 21 18
3 2 2 2 1 1 1 7 13 8 6 7 6 5 7 9 10 8 4 5 4 3 5 7 6 5 5 4 3 3 6 6 4 5 5 5 3 2 2 3 2 1 3 3 2 2 3 3 2 6 5 7 4 5 5 8 9 8 9 10 12 15 17 19 19 16 12 11 14 12 10 13 7 8 12 16 13 11 11 9 12 15 17 17 17 16 14 10
6 3 2 2 1 1 1 2 6 6 5 6 6 5 8 11 12 9 5 7 8 5 6 9 5 4 3 2 2 5 5 5 7 6 7 6 4 4 2 2 4 3 2 2 2 2 3 2 2 5 4 6 3 6 5 4 4 5 8 11 13 15 15 15 13 11 11 13 13 11 12 13 7 10 10 9 8 9 12 14 16 16 14 13 11 9 7 5
12 6 3 2 1 1 2 1 2 5 5 6 7 4 4 7 9 9 5 7 12 13 13 11 7 4 3 4 9 12 9 6 7 7 7 5 3 4 3 2 3 3 2 2 2 1 4 4 2 3 5 4 2 6 7 6 3 5 10 15 18 16 13 9 8 10 13 14 11 10 12 10 4 8 7 5 8 11 13 14 14 13 10 9 7 5 4 3
Wind_Direction
198 193 189 187 187 185 180 182 183 183 184 187 191 194 196 196 192 188 187 185 184 182 179 180 183 185 186 190 193 191 190 194 202 210 214 208 201 201 193 187 187 185 188 188 183 180 176 176 183 179 178 176 170 170 155 139 143 134 108 95 171 184 200 187 179 193 167 213 211 189 183 165 150 167 174 178 179 177 174 190 195 195 209 220 215 215 198 192
198 192 187 186 186 184 179 180 179 178 180 184 184 184 186 185 182 180 180 182 183 181 177 181 187 188 187 189 190 188 191 195 205 213 210 201 197 198 191 183 182 182 182 183 181 179 175 174 181 178 178 177 170 171 165 157 144 120 103 116 209 203 205 197 188 201 181 227 206 190 187 173 165 165 164 172 178 171 173 197 202 202 209 206 201 199 193 192
199 191 190 188 184 183 180 178 178 177 180 183 183 181 181 180 179 179 179 183 185 182 179 184 191 191 188 186 185 187 191 198 216 215 203 196 195 193 190 186 181 178 179 180 179 177 174 176 180 179 179 177 170 171 166 161 160 121 107 130 238 214 207 223 221 218 214 234 195 182 187 175 171 167 168 177 164 176 196 199 198 205 207 200 194 187 189 194
199 193 193 188 183 183 182 179 178 180 182 183 182 180 180 179 180 181 180 185 189 185 181 186 193 192 187 182 181 183 183 199 228 214 197 193 192 188 189 191 185 179 179 177 177 176 174 175 179 180 177 173 161 170 172 164 172 161 131 170 224 192 184 225 225 269 238 222 191 176 170 171 176 176 182 167 142 241 228 210 209 214 208 200 196 190 190 196
198 193 192 189 184 182 184 184 181 181 182 182 183 183 182 181 182 183 182 189 193 187 182 187 193 190 185 181 177 173 161 148 227 206 194 191 188 187 189 190 188 183 180 177 178 176 174 174 172 174 172 168 145 154 192 171 152 143 169 204 169 159 171 213 210 321 214 179 173 166 160 179 177 184 197 177 165 230 233 225 225 225 219 213 211 202 195 198
198 194 192 192 187 182 184 186 184 183 182 183 184 186 185 184 185 184 185 191 194 188 183 186 190 188 184 181 176 168 166 133 205 191 188 187 184 188 189 189 188 185 184 180 180 178 178 176 169 172 165 138 170 162 181 174 156 146 237 223 153 169 187 166 158 17 160 160 171 176 177 182 171 193 211 201 210 225 235 245 236 232 228 226 223 213 207 205
201 198 196 195 191 186 184 185 185 185 184 184 185 186 186 187 188 186 187 192 192 188 186 186 187 188 184 181 177 177 192 228 182 181 184 183 184 188 188 187 186 186 187 184 183 182 182 180 175 175 152 89 190 191 147 165 164 133 175 193 156 176 180 155 134 128 170 181 187 188 189 189 182 197 217 219 228 231 239 257 239 232 227 226 224 220 222 220
198 198 198 197 196 192 187 185 187 187 186 186 185 185 186 189 191 189 188 190 189 187 188 187 185 187 186 183 181 185 206 223 176 181 183 183 187 186 184 185 185 187 186 186 188 186 186 185 181 174 158 166 194 181 145 139 127 114 165 190 147 139 166 162 147 133 161 182 186 188 194 207 203 210 243 238 237 234 236 241 239 230 223 225 226 226 229 226
194 195 196 197 197 195 190 188 188 188 189 187 184 184 186 189 192 191 189 188 186 185 188 189 186 186 186 186 185 188 205 201 177 182 182 185 187 182 180 181 184 186 184 187 190 192 192 185 182 178 181 207 181 163 158 144 236 190 167 171 142 121 147 156 165 149 147 164 169 183 222 271 209 243 269 255 250 240 233 229 228 225 217 219 225 231 232 231
192 193 195 197 197 195 193 191 191 191 191 189 185 183 186 190 193 193 192 187 184 184 187 189 188 186 186 186 183 187 197 191 184 183 183 187 185 180 179 178 180 184 188 189 190 197 196 187 185 180 178 192 164 145 164 158 206 176 144 124 108 102 139 149 166 160 152 156 165 184 241 280 178 226 259 254 260 237 228 224 222 222 218 217 224 232 235 237
192 194 196 197 197 195 192 191 192 193 194 192 187 184 185 190 194 194 193 188 183 184 186 189 188 187 188 187 185 189 191 191 193 182 184 187 183 182 180 178 178 181 192 193 190 193 192 191 186 178 179 182 156 127 160 172 166 154 137 107 37 33 134 160 149 159 158 144 169 168 217 286 114 207 239 232 270 241 223 224 224 226 228 229 233 235 236 238
197 196 196 196 197 195 192 191 191 193 195 193 190 188 185 189 194 194 194 190 185 183 186 188 187 187 187 190 197 198 188 193 198 185 185 186 184 186 184 181 182 183 194 196 192 186 179 182 182 185 184 155 150 113 145 154 136 135 128 118 345 5 23 292 134 165 170 139 163 130 12 290 226 228 236 225 238 255 220 224 228 233 236 237 239 239 238 240
203 199 198 196 196 196 193 190 190 192 194 194 192 190 187 188 191 193 195 192 187 184 185 186 186 187 185 191 203 201 191 193 197 190 187 187 188 191 189 188 189 192 197 197 195 185 174 172 178 185 169 152 145 124 135 126 121 122 92 111 13 8 352 302 73 163 166 151 180 137 256 277 254 243 242 239 245 246 241 234 232 235 239 240 241 242 242 243
206 203 200 197 197 197 195 191 190 190 193 194 193 191 188 187 188 192 194 193 189 184 183 184 184 186 187 196 207 203 198 190 193 193 189 190 192 192 192 195 198 202 203 199 195 187 178 173 174 166 154 151 132 123 112 62 86 104 58 62 53 94 271 303 16 155 150 192 201 132 195 264 273 268 258 254 251 245 244 245 241 238 239 242 243 245 248 249
211 206 202 199 198 197 196 193 190 189 191 194 194 193 189 186 186 187 190 193 188 184 183 182 181 182 190 207 211 203 202 197 193 192 191 192 194 193 193 197 202 204 203 200 193 185 178 172 167 145 130 137 129 117 62 16 29 38 101 314 350 159 259 312 339 161 155 205 178 122 206 266 275 281 313 278 251 238 242 245 246 243 241 244 246 248 252 255
215 209 204 201 198 198 196 193 191 189 190 193 194 194 189 185 185 184 187 189 185 181 179 180 181 177 181 212 208 203 204 203 192 188 191 193 194 193 193 196 200 199 197 192 185 180 175 163 143 123 119 132 127 104 59 39 351 1 107 187 261 168 265 317 332 239 160 162 96 97 213 261 290 269 129 64 44 51 249 251 244 242 245 248 251 253 255 258
215 212 207 201 199 199 196 193 191 188 189 191 193 193 187 183 183 181 180 182 179 174 174 176 177 178 201 215 204 201 200 200 189 185 189 190 192 192 193 192 188 189 184 171 171 169 167 155 135 127 105 107 107 96 93 317 269 301 51 133 215 188 196 284 299 309 57 126 266 12 229 248 279 274 255 268 309 311 292 279 267 256 255 257 259 261 261 262
214 213 209 202 199 198 196 194 191 188 188 188 190 191 183 177 178 175 172 172 165 157 162 170 166 173 237 216 202 197 195 195 188 183 185 186 189 190 190 187 176 173 162 153 159 160 157 137 122 127 49 66 124 116 139 213 197 189 183 154 209 201 192 240 255 256 55 78 228 44 279 262 270 277 272 268 276 288 286 281 279 274 268 267 266 265 264 264
215 216 212 204 199 196 195 193 190 187 184 184 186 182 171 164 163 164 164 163 158 146 161 178 170 160 263 202 194 192 190 189 186 182 182 182 183 185 185 178 170 163 150 142 155 155 140 101 96 125 135 165 195 170 175 198 174 171 174 147 155 170 223 242 249 265 134 118 231 218 235 265 271 279 277 272 277 285 281 277 275 271 268 267 265 263 262 262
217 217 213 207 201 196 194 192 190 186 180 182 181 171 159 151 141 152 167 166 168 169 205 184 181 182 4 181 183 183 180 180 183 180 179 180 177 176 172 165 163 157 149 150 155 150 126 126 164 184 190 194 196 173 150 151 139 138 130 111 138 165 244 255 265 303 64 147 253 235 238 268 269 272 272 273 281 282 272 270 266 264 264 263 263 263 263 262
218 218 213 209 203 196 192 189 189 183 177 181 179 172 164 159 146 167 174 175 188 193 244 183 184 200 337 173 177 174 168 169 181 180 177 178 174 169 167 160 152 145 189 142 119 108 113 155 208 210 196 180 162 147 116 96 91 99 126 124 116 168 228 251 253 313 15 148 265 351 313 272 261 265 268 270 274 262 256 254 257 260 262 262 263 263 262 264
220 221 214 210 204 195 190 186 187 183 177 178 181 179 174 171 169 179 172 173 198 195 210 181 185 201 190 170 174 169 162 158 178 183 177 173 172 174 172 156 141 153 198 114 105 87 105 203 230 208 163 115 101 116 100 88 86 82 111 125 130 193 245 286 287 326 16 44 274 346 335 278 261 259 262 259 251 253 256 254 257 261 262 264 263 261 262 263
221 222 215 210 202 193 187 185 186 183 178 180 183 182 177 176 176 175 170 153 183 187 185 178 184 193 171 166 174 171 165 156 174 184 179 173 174 176 168 151 133 145 155 154 143 132 153 246 230 168 142 118 97 96 97 85 80 87 106 126 165 240 160 255 288 328 12 63 275 315 307 281 280 279 268 261 254 259 265 262 261 260 260 264 264 263 263 262
221 221 216 207 197 190 184 183 184 183 182 183 185 185 179 180 175 168 165 92 157 185 186 179 185 189 175 167 176 177 174 170 176 182 180 177 173 169 167 151 122 137 170 170 150 152 197 254 154 131 132 128 119 122 125 121 86 44 134 139 159 202 174 194 314 343 355 22 25 352 315 291 314 329 292 286 278 270 271 269 266 260 257 261 265 264 263 262
224 222 216 200 191 185 179 180 182 182 184 183 184 185 180 181 176 167 157 53 143 192 189 186 191 193 183 172 177 177 172 177 182 182 182 180 172 160 159 151 137 170 188 146 135 162 223 237 136 125 98 108 121 154 174 151 138 293 228 175 174 174 164 170 19 51 33 355 345 19 358 291 311 318 278 302 341 300 292 284 271 269 265 262 262 262 261 263
224 224 215 194 183 177 175 181 182 182 184 183 183 183 181 180 173 168 148 43 224 209 170 183 189 189 187 178 171 161 157 195 188 183 182 182 179 163 148 149 116 166 175 141 132 173 219 119 121 130 121 108 112 150 199 154 126 213 237 173 152 133 129 137 113 80 82 260 315 44 104 266 301 289 263 303 339 306 299 293 281 284 285 276 269 267 266 267
222 221 205 183 175 174 174 179 182 181 182 183 183 181 182 179 171 166 130 31 257 183 151 175 179 180 185 176 166 156 148 179 167 180 182 180 185 172 162 176 95 139 170 135 144 229 155 103 71 100 109 108 122 162 202 147 125 205 224 131 124 117 129 142 114 98 200 239 330 13 114 238 290 265 265 320 331 299 295 295 295 304 307 295 276 268 268 270
206 204 188 174 171 172 174 179 182 180 179 180 180 179 180 177 171 162 120 51 209 148 145 175 167 173 177 170 171 161 137 154 146 181 183 178 183 172 169 196 153 145 153 131 183 260 116 152 162 126 102 124 175 208 185 133 108 232 193 120 122 123 127 121 100 97 21 13 317 315 118 197 270 277 302 332 302 293 301 295 298 318 328 333 311 230 167 138
176 177 174 170 167 169 175 181 181 179 176 174 174 176 174 171 166 141 97 195 161 111 139 161 157 169 166 161 172 158 133 151 137 168 174 174 180 166 137 181 146 117 71 92 169 235 37 189 195 140 130 180 200 231 176 135 96 169 140 97 77 73 79 74 88 100 42 15 257 256 203 198 264 288 312 354 256 266 286 287 297 332 354 32 79 100 112 112
159 163 166 166 166 170 177 179 179 178 172 167 167 166 161 159 154 135 198 216 144 94 128 152 163 170 156 147 162 148 129 134 116 140 155 165 167 144 115 139 125 106 46 33 96 242 321 357 58 108 143 173 142 84 86 113 130 135 113 73 58 34 34 44 50 76 53 305 255 246 250 183 263 283 267 205 207 220 251 308 312 349 25 67 90 93 99 98
155 159 164 167 169 174 176 175 178 177 171 164 158 155 151 141 124 167 199 197 114 104 105 145 172 156 156 158 161 162 110 57 136 141 144 149 150 135 121 131 105 88 49 27 51 320 350 55 2 348 137 131 106 68 40 61 109 116 91 84 80 359 12 27 0 40 105 257 262 262 271 175 221 264 250 231 254 231 203 276 301 331 15 65 90 91 90 90
163 162 162 168 172 175 175 175 178 177 174 169 159 155 146 119 206 202 196 139 145 183 167 171 201 165 163 155 135 152 118 96 165 152 146 147 156 172 160 168 156 109 160 190 163 331 13 75 303 330 215 162 115 79 47 22 40 78 91 97 89 355 8 353 312 349 218 245 273 281 244 209 231 246 254 256 260 241 216 219 266 312 339 42 79 83 84 85
166 166 163 165 170 174 174 175 178 179 178 174 168 157 119 130 208 204 197 208 198 186 147 143 145 151 153 141 143 163 114 134 188 152 138 140 159 203 236 199 153 125 185 178 131 134 272 307 307 72 257 217 157 124 132 230 75 122 131 124 125 127 107 267 267 283 259 256 287 285 247 255 268 257 251 250 243 249 245 237 262 293 300 319 332 324 10 60
166 167 174 171 169 172 172 174 177 179 179 175 167 143 122 185 205 164 169 213 258 40 86 113 112 131 147 147 179 174 110 162 182 135 122 127 149 201 231 223 169 102 114 146 146 168 184 275 225 165 203 197 180 164 154 147 141 175 158 130 144 158 160 210 218 211 243 277 304 295 257 206 214 260 250 250 264 277 266 255 268 281 283 285 280 283 290 304
170 173 184 184 183 180 171 172 176 177 176 170 157 143 184 199 206 152 173 192 174 48 47 87 117 135 157 77 185 194 147 179 177 132 152 166 174 194 194 202 193 129 131 160 200 171 169 246 250 290 207 161 169 204 134 113 109 244 119 108 164 184 144 138 181 174 170 323 307 262 238 213 212 277 276 272 284 281 259 252 266 279 304 323 308 303 287 234
174 180 188 190 191 188 177 175 176 175 172 164 151 202 202 199 194 183 171 146 146 131 104 85 100 138 173 117 185 219 219 114 156 146 182 196 210 197 191 202 191 179 165 158 173 167 157 253 301 349 15 114 121 194 115 115 171 171 125 172 212 169 113 113 204 53 83 256 274 218 251 292 329 296 297 311 301 295 276 258 264 275 347 25 37 66 100 130
169 175 184 190 191 189 184 181 176 174 172 164 180 208 199 148 180 179 145 127 140 139 130 141 163 156 171 169 189 200 184 116 156 169 186 197 239 193 193 232 193 186 190 152 167 199 153 194 316 32 118 349 18 89 66 46 112 126 176 204 188 115 88 108 184 356 48 245 275 256 242 284 328 276 317 357 312 283 282 271 271 283 25 58 66 78 97 113
165 162 174 187 191 190 186 183 180 175 169 166 209 214 181 119 196 178 141 133 132 136 144 164 167 151 170 180 186 183 176 165 171 183 173 185 243 194 174 206 193 189 199 172 140 207 142 139 311 20 149 307 4 95 77 13 56 127 172 163 121 138 166 98 148 186 150 240 280 300 277 255 202 228 298 339 194 242 270 280 278 281 57 77 79 81 94 114
182 169 168 183 185 188 187 185 179 174 168 180 208 217 190 147 226 163 147 144 129 134 164 181 162 116 171 175 169 173 184 179 169 180 180 181 234 203 174 188 191 188 194 175 147 195 138 142 255 319 276 308 14 121 193 222 38 66 108 107 82 131 163 159 149 161 174 202 262 308 318 270 225 213 212 216 211 220 240 262 275 253 112 102 93 88 95 110
185 184 234 198 179 183 188 184 173 169 181 209 196 204 24 133 192 146 139 148 134 123 170 190 161 141 164 164 161 173 181 174 167 182 204 187 207 231 194 188 169 174 180 159 133 168 129 161 214 316 344 209 196 216 191 170 144 114 126 156 177 82 105 154 162 121 141 163 193 285 297 266 246 211 192 207 218 215 204 200 214 134 124 119 106 100 102 105
184 167 225 209 196 178 174 172 166 166 192 216 148 160 216 142 150 154 132 124 105 85 138 158 149 151 156 152 175 180 159 152 172 183 208 199 201 228 209 189 159 144 151 132 154 177 152 166 173 138 178 203 226 261 193 170 169 164 176 187 178 155 123 148 241 250 117 159 172 187 269 262 242 206 196 205 218 204 153 138 133 125 126 125 111 108 107 102
180 166 192 196 206 191 155 144 140 137 154 174 151 153 148 111 128 163 158 100 80 75 95 113 127 147 159 159 159 163 154 155 182 188 204 210 201 203 208 189 164 153 154 163 184 172 117 110 127 153 214 219 247 286 231 172 140 131 187 194 169 161 141 152 208 227 141 179 154 126 267 270 259 211 205 247 261 168 135 129 127 126 129 127 115 109 99 88
179 190 176 179 201 207 165 93 119 128 123 199 154 114 111 117 127 143 175 154 80 82 82 94 130 141 173 170 141 162 170 169 188 196 202 211 208 210 192 177 166 159 159 168 174 152 115 111 130 173 305 307 314 335 14 52 77 128 235 175 160 183 155 149 181 175 165 194 152 109 255 264 281 310 302 282 195 147 137 129 120 119 125 122 111 94 71 32
176 180 178 179 192 194 183 116 148 149 160 150 112 109 120 155 156 137 164 196 149 120 121 145 162 142 173 148 134 174 184 178 197 203 192 188 203 199 172 171 171 167 171 185 177 172 180 161 130 130 18 346 334 334 322 293 191 198 228 190 178 158 104 100 130 114 207 215 168 163 238 251 280 322 342 341 134 142 155 152 130 110 120 118 87 25 357 344
162 160 181 191 186 181 182 198 157 129 134 137 132 175 157 137 198 172 159 157 166 151 137 170 156 113 132 119 91 154 176 155 178 188 176 196 212 160 153 180 184 183 194 196 169 164 178 190 149 156 182 199 208 217 213 201 171 189 212 191 187 158 144 163 143 133 233 223 163 191 235 247 302 324 10 70 123 146 169 172 154 115 132 132 345 323 326 334
153 164 177 185 182 180 187 191 173 148 143 151 149 191 178 179 220 184 162 151 202 149 93 83 154 108 94 128 109 146 187 105 69 158 173 194 216 350 49 177 187 192 202 176 164 156 143 212 188 189 206 209 207 202 159 134 146 206 213 189 188 185 179 173 134 179 215 183 170 225 229 229 273 294 313 189 170 177 198 196 188 139 149 270 312 310 318 331
150 198 169 150 180 189 189 179 175 176 165 166 170 180 178 180 173 185 186 200 208 177 103 23 175 156 163 161 142 159 183 103 71 149 163 177 202 343 31 91 150 186 184 165 168 153 101 227 207 201 222 226 210 192 171 151 171 202 204 193 193 192 183 178 195 213 196 128 233 234 198 218 245 231 233 241 205 206 228 214 217 298 296 286 301 307 318 330
165 213 171 165 172 196 203 181 174 176 169 169 177 164 170 180 181 182 193 191 189 182 168 332 236 198 180 168 154 147 157 141 165 186 156 150 160 50 37 53 76 146 150 156 173 150 126 218 211 190 225 238 215 177 185 177 187 202 200 198 197 189 185 193 212 221 191 178 240 230 162 209 238 210 207 229 212 219 239 236 260 293 292 296 304 311 321 328
191 250 187 185 168 164 226 171 163 169 176 172 179 175 171 182 191 192 161 117 172 206 191 208 220 198 184 174 151 150 168 171 185 198 174 147 146 108 100 111 34 120 122 136 175 157 153 220 201 173 219 242 219 177 190 187 192 208 204 200 197 193 196 202 214 223 210 208 242 241 200 231 242 192 208 232 228 232 243 253 274 282 288 298 305 311 317 320
196 219 177 157 134 61 68 157 160 168 180 179 193 197 179 183 192 195 171 150 172 204 201 210 205 169 179 192 156 180 197 175 165 187 176 157 170 185 165 175 185 102 89 121 158 163 180 219 149 140 207 251 216 169 190 193 196 209 212 209 205 202 207 212 217 221 216 224 246 254 256 262 243 176 210 233 229 231 243 254 266 274 282 291 297 302 303 298
202 209 160 126 102 136 145 150 159 166 178 189 199 192 191 201 196 185 190 195 189 177 188 202 189 145 169 205 219 234 216 144 117 130 136 133 150 162 150 151 147 115 70 124 134 131 169 206 58 110 189 250 211 160 160 151 169 220 227 217 211 209 212 216 217 211 204 216 233 240 251 260 225 173 201 218 198 211 237 249 259 267 274 282 285 280 271 261
206 212 200 150 36 195 174 70 160 180 190 199 196 177 182 203 187 168 184 211 202 202 206 195 167 145 162 190 223 233 215 145 107 102 99 84 101 122 99 95 129 131 123 120 111 136 155 157 132 152 192 239 189 150 131 103 126 231 234 218 211 212 212 208 217 224 213 207 212 219 234 249 204 164 183 173 169 205 231 238 248 258 260 261 255 224 203 205